Weather History for Wolf Point, MT

Change the Weather History Date:

Wednesday, May 13, 2009

  Actual Average Record
Temperature  
Mean Temperature 37 °F -  
Max Temperature 48 °F 69 °F 91 °F (2001)
Min Temperature 25 °F 38 °F 24 °F (2000)
Degree Days  
Heating Degree Days 28    
Cooling Degree Days 0    
Moisture  
Dew Point 30 °F    
Average Humidity 79    
Maximum Humidity 93    
Minimum Humidity 48    
Precipitation  
Precipitation T in 0.05 in 0.65 in (2007)
Month to date precipitation 0.27 0.53  
Year to date precipitation 2.11 2.45  
Sea Level Pressure  
Sea Level Pressure 29.81 in    
Wind  
Wind Speed 20 mph (WNW)    
Max Wind Speed 32 mph    
Max Gust Speed 41 mph    
Visibility 6 miles    
Events Fog , Snow    
T = Trace of Precipitation, MM = Missing Value Source: NWS Daily Summary

Daily Weather History Graph

Daily Weather History Graph

Search for Another Location

Airport:

Trip Planner

Search our weather history database for the weather conditions in past years. The results will help you decide how hot, cold, wet, or windy it might be!

Date:

Astronomy

May. 13, 2009 Rise Set
Actual Time 5:25 AM MDT 8:32 PM MDT
Civil Twilight 4:48 AM MDT 9:09 PM MDT
Nautical Twilight 4:00 AM MDT 9:57 PM MDT
Astronomical Twilight 3:01 AM MDT 10:57 PM MDT
Moon 12:22 AM MDT 8:28 AM MDT
Length of Visible Light 16h 21m
Length of Day
15h 07m
Waning Gibbous, 81% of the Moon is Illuminated
May 13
Waning Gibbous
May 17
Last Quarter
May 24
New
May 30
First Quarter
Jun 7
Full

Hourly Weather History & Observations

Time (MDT) Temp. Windchill Dew Point Humidity Pressure Visibility Wind Dir Wind Speed Gust Speed Precip Events Conditions
12:53 AM 48.0 °F - 36.0 °F 63% 29.52 in 10.0 mi West 15.0 mph 21.9 mph N/A   Clear
1:53 AM 46.9 °F - 28.9 °F 50% 29.53 in 10.0 mi West 20.7 mph 25.3 mph N/A   Clear
2:53 AM 45.0 °F 37.9 °F 26.1 °F 48% 29.53 in 10.0 mi WSW 16.1 mph 25.3 mph N/A   Clear
3:53 AM 43.0 °F 35.1 °F 30.9 °F 62% 29.56 in 10.0 mi West 17.3 mph 24.2 mph N/A   Clear
4:53 AM 41.0 °F 32.2 °F 33.1 °F 73% 29.58 in 10.0 mi West 18.4 mph 32.2 mph N/A   Scattered Clouds
5:02 AM 41.0 °F 32.2 °F 33.8 °F 76% 29.57 in 10.0 mi West 18.4 mph 25.3 mph N/A   Mostly Cloudy
5:53 AM 39.0 °F 28.8 °F 32.0 °F 76% 29.61 in 10.0 mi West 21.9 mph 33.4 mph N/A   Overcast
6:26 AM 37.4 °F 26.1 °F 30.2 °F 75% 29.60 in 10.0 mi West 24.2 mph 34.5 mph N/A   Partly Cloudy
6:53 AM 37.9 °F 26.3 °F 30.0 °F 73% 29.64 in 10.0 mi WNW 26.5 mph 35.7 mph N/A   Partly Cloudy
7:53 AM 37.9 °F 25.7 °F 28.9 °F 70% 29.66 in 10.0 mi West 29.9 mph 38.0 mph N/A   Mostly Cloudy
8:45 AM 39.2 °F 28.0 °F 30.2 °F 70% 29.66 in 10.0 mi West 26.5 mph 34.5 mph N/A   Overcast
8:53 AM 39.0 °F 28.0 °F 28.9 °F 67% 29.69 in 10.0 mi WNW 25.3 mph 33.4 mph N/A   Overcast
9:53 AM 36.0 °F 22.6 °F 28.9 °F 76% 29.75 in 9.0 mi NW 32.2 mph 41.4 mph 0.00 in   Overcast
10:13 AM 35.6 °F 23.4 °F 30.2 °F 81% 29.73 in 1.8 mi WNW 25.3 mph 34.5 mph 0.00 in Snow Light Snow
10:36 AM 35.6 °F 23.7 °F 30.2 °F 81% 29.76 in 3.0 mi WNW 24.2 mph 32.2 mph 0.00 in Snow Light Snow
10:53 AM 35.1 °F 24.1 °F 30.9 °F 85% 29.81 in 2.5 mi WNW 19.6 mph 31.1 mph 0.00 in Snow Light Snow
11:09 AM 33.8 °F 21.3 °F 30.2 °F 87% 29.78 in 1.8 mi WNW 24.2 mph 32.2 mph 0.00 in Snow Light Snow
11:29 AM 33.8 °F 22.2 °F 30.2 °F 87% 29.81 in 0.8 mi WNW 20.7 mph 34.5 mph 0.00 in Snow Light Snow
11:34 AM 32.0 °F 19.2 °F 30.2 °F 93% 29.81 in 0.5 mi West 23.0 mph 28.8 mph 0.00 in Fog , Snow Snow
11:44 AM 33.8 °F 22.8 °F 30.2 °F 87% 29.82 in 1.0 mi West 18.4 mph 29.9 mph 0.00 in Snow Light Snow
11:48 AM 33.8 °F 22.8 °F 30.2 °F 87% 29.82 in 1.8 mi WNW 18.4 mph 29.9 mph 0.00 in Snow Light Snow
11:51 AM 33.8 °F 22.2 °F 30.2 °F 87% 29.82 in 2.0 mi WNW 20.7 mph 27.6 mph 0.00 in Snow Light Snow
11:53 AM 33.1 °F 21.2 °F 30.0 °F 89% 29.86 in 2.0 mi WNW 20.7 mph 28.8 mph 0.00 in Snow Light Snow
12:10 PM 33.8 °F 21.0 °F 30.2 °F 87% 29.84 in 1.5 mi WNW 25.3 mph 32.2 mph 0.00 in Snow Light Snow
12:18 PM 33.8 °F 21.0 °F 30.2 °F 87% 29.84 in 1.0 mi WNW 25.3 mph 33.4 mph 0.00 in Snow Light Snow
12:34 PM 33.8 °F 22.5 °F 30.2 °F 87% 29.85 in 2.0 mi WNW 19.6 mph 31.1 mph 0.00 in Snow Light Snow
12:43 PM 33.8 °F 21.6 °F 30.2 °F 87% 29.86 in 4.0 mi WNW 23.0 mph 31.1 mph 0.00 in Snow Light Snow
12:51 PM 33.8 °F 21.0 °F 30.2 °F 87% 29.87 in 1.8 mi WNW 25.3 mph 33.4 mph 0.00 in Snow Light Snow
12:53 PM 33.1 °F 20.6 °F 30.0 °F 89% 29.91 in 1.5 mi WNW 23.0 mph 33.4 mph 0.00 in Snow Light Snow
12:58 PM 33.8 °F 21.9 °F 30.2 °F 87% 29.87 in 1.0 mi WNW 21.9 mph 31.1 mph 0.00 in Snow Light Snow
1:06 PM 33.8 °F 22.5 °F 30.2 °F 87% 29.88 in 0.8 mi WNW 19.6 mph 29.9 mph 0.00 in Snow Light Snow
1:32 PM 33.8 °F 21.9 °F 30.2 °F 87% 29.89 in 1.2 mi WNW 21.9 mph 32.2 mph 0.00 in Snow Light Snow
1:40 PM 33.8 °F 19.6 °F 30.2 °F 87% 29.89 in 3.0 mi NW 32.2 mph 38.0 mph 0.00 in Snow Light Snow
1:53 PM 35.1 °F 22.2 °F 30.0 °F 82% 29.94 in 10.0 mi WNW 27.6 mph 34.5 mph 0.00 in   Overcast
2:53 PM 37.0 °F 25.1 °F 30.9 °F 79% 29.98 in 10.0 mi NW 26.5 mph 33.4 mph N/A   Overcast
3:53 PM 39.9 °F 29.5 °F 32.0 °F 73% 30.00 in 10.0 mi WNW 24.2 mph 31.1 mph N/A   Overcast
4:53 PM 39.9 °F 30.5 °F 30.9 °F 70% 30.04 in 10.0 mi WNW 19.6 mph 29.9 mph N/A   Overcast
5:53 PM 39.9 °F 30.8 °F 30.9 °F 70% 30.06 in 10.0 mi WNW 18.4 mph 27.6 mph N/A   Overcast
6:53 PM 41.0 °F 32.8 °F 30.9 °F 67% 30.06 in 10.0 mi WNW 16.1 mph 25.3 mph N/A   Overcast
7:53 PM 41.0 °F 33.1 °F 30.9 °F 67% 30.06 in 10.0 mi WNW 15.0 mph - N/A   Overcast
9:53 PM 35.1 °F 30.1 °F 28.9 °F 78% 30.07 in 10.0 mi West 5.8 mph - N/A   Clear
10:53 PM 32.0 °F - 28.9 °F 88% 30.08 in 10.0 mi Calm Calm - N/A   Clear
11:53 PM 28.0 °F - 26.1 °F 92% 30.06 in 10.0 mi Calm Calm - N/A   Clear